Time,TemperatureF,DewpointF,PressureIn,WindDirection,WindDirectionDegrees,WindSpeedMPH,WindSpeedGustMPH,Humidity,HourlyPrecipIn,Conditions,Clouds,dailyrainin,SolarRadiationWatts/m^2,SoftwareType,DateUTC
2013-03-09 00:00:00,46.6,42.5,29.91,SW,217,1.0,-999.0,86,0.00,,,0.00,1.22,,2013-03-09 08:00:00,
2013-03-09 00:05:00,46.7,42.7,29.92,SW,220,3.4,-999.0,86,0.00,,,0.00,0.00,,2013-03-09 08:05:00,
2013-03-09 00:10:00,46.8,42.4,29.91,SSW,203,3.7,-999.0,85,0.00,,,0.00,0.00,,2013-03-09 08:10:00,
2013-03-09 00:20:00,47.0,42.7,29.92,SSW,206,4.0,-999.0,85,0.00,,,0.00,0.00,,2013-03-09 08:20:00,
2013-03-09 00:30:00,46.8,42.4,29.93,SW,214,5.6,-999.0,85,0.00,,,0.00,0.00,,2013-03-09 08:30:00,
2013-03-09 00:35:00,46.6,42.0,29.92,SW,231,0.0,-999.0,84,0.00,,,0.00,0.67,,2013-03-09 08:35:00,
2013-03-09 00:40:00,46.6,42.1,29.93,SW,220,2.5,-999.0,84,0.00,,,0.00,0.49,,2013-03-09 08:40:00,
2013-03-09 00:45:00,46.7,42.1,29.93,WSW,244,2.2,-999.0,84,0.00,,,0.00,0.73,,2013-03-09 08:45:00,
2013-03-09 00:50:00,46.1,41.6,29.93,SW,224,2.0,-999.0,84,0.00,,,0.00,0.92,,2013-03-09 08:50:00,
2013-03-09 00:55:00,46.3,41.4,29.92,SW,229,3.0,-999.0,83,0.00,,,0.00,0.00,,2013-03-09 08:55:00,
2013-03-09 01:00:00,46.3,41.3,29.95,WSW,237,1.1,-999.0,83,0.00,,,0.00,0.00,,2013-03-09 09:00:00,
2013-03-09 01:10:00,46.6,42.0,29.95,WSW,252,2.2,-999.0,84,0.00,,,0.00,0.98,,2013-03-09 09:10:00,
2013-03-09 01:15:00,46.2,41.8,29.95,SSW,207,2.5,-999.0,84,0.00,,,0.00,0.00,,2013-03-09 09:15:00,
2013-03-09 01:20:00,46.3,41.7,29.96,SW,231,3.5,-999.0,84,0.00,,,0.00,0.00,,2013-03-09 09:20:00,
2013-03-09 01:25:00,46.1,41.5,29.94,WSW,239,0.0,-999.0,84,0.00,,,0.00,0.00,,2013-03-09 09:25:00,
2013-03-09 01:30:00,46.2,41.7,29.95,WSW,239,1.3,-999.0,84,0.00,,,0.00,0.67,,2013-03-09 09:30:00,
2013-03-09 01:35:00,46.2,41.8,29.95,SW,218,1.6,-999.0,85,0.00,,,0.00,0.00,,2013-03-09 09:35:00,
2013-03-09 01:40:00,46.6,42.2,29.95,SW,235,1.6,-999.0,85,0.00,,,0.00,0.00,,2013-03-09 09:40:00,
2013-03-09 01:45:00,46.2,41.8,29.96,WSW,244,1.0,-999.0,85,0.00,,,0.00,0.61,,2013-03-09 09:45:00,
2013-03-09 01:50:00,45.8,41.5,29.96,WSW,252,0.0,-999.0,85,0.00,,,0.00,0.24,,2013-03-09 09:50:00,
2013-03-09 01:55:00,45.8,41.6,29.96,SW,215,0.0,-999.0,85,0.00,,,0.00,0.31,,2013-03-09 09:55:00,
2013-03-09 02:00:00,45.6,41.5,29.96,SW,232,1.6,-999.0,86,0.00,,,0.00,0.73,,2013-03-09 10:00:00,
2013-03-09 02:05:00,45.7,42.0,29.95,SW,227,0.0,-999.0,87,0.00,,,0.00,0.00,,2013-03-09 10:05:00,
2013-03-09 02:10:00,45.2,41.9,29.95,SW,218,3.0,-999.0,88,0.00,,,0.00,0.98,,2013-03-09 10:10:00,
2013-03-09 02:15:00,45.4,42.2,29.96,SW,229,1.0,-999.0,89,0.00,,,0.00,0.18,,2013-03-09 10:15:00,
2013-03-09 02:20:00,45.5,-83.2,0.00,North,0,0.0,-999.0,0,-1.30,,,-1.30,0.06,,2013-03-09 10:20:00,
2013-03-09 02:30:00,45.8,42.8,29.95,SSW,211,0.0,-999.0,89,0.00,,,0.00,0.00,,2013-03-09 10:30:00,
2013-03-09 02:35:00,45.5,42.6,29.96,SSW,211,0.0,-999.0,89,0.00,,,0.00,0.73,,2013-03-09 10:35:00,
2013-03-09 02:40:00,45.1,42.3,29.95,SSW,211,0.0,-999.0,90,0.00,,,0.00,0.00,,2013-03-09 10:40:00,
2013-03-09 02:45:00,45.0,42.6,29.95,SSW,211,0.0,-999.0,91,0.00,,,0.00,0.00,,2013-03-09 10:45:00,
2013-03-09 02:50:00,45.3,43.2,29.96,SSW,211,0.0,-999.0,92,0.00,,,0.00,0.12,,2013-03-09 10:50:00,
2013-03-09 02:55:00,45.6,43.7,29.96,SSW,211,0.0,-999.0,93,0.00,,,0.00,0.49,,2013-03-09 10:55:00,
2013-03-09 03:00:00,45.0,42.7,29.96,SSW,211,0.0,-999.0,92,0.00,,,0.00,0.00,,2013-03-09 11:00:00,
2013-03-09 03:05:00,44.6,42.4,29.96,SSW,211,0.0,-999.0,92,0.00,,,0.00,0.85,,2013-03-09 11:05:00,
2013-03-09 03:10:00,44.9,43.1,29.96,SSW,211,0.0,-999.0,93,0.00,,,0.00,0.61,,2013-03-09 11:10:00,
2013-03-09 03:15:00,45.0,43.2,29.95,SSW,211,0.0,-999.0,94,0.00,,,0.00,0.06,,2013-03-09 11:15:00,
2013-03-09 03:20:00,43.9,42.2,29.96,SSW,211,0.0,-999.0,94,1.30,,,0.00,0.00,,2013-03-09 11:20:00,
2013-03-09 03:30:00,43.5,42.1,29.96,SSW,211,0.0,-999.0,95,0.00,,,0.00,0.43,,2013-03-09 11:30:00,
2013-03-09 03:35:00,44.6,43.3,29.96,SSW,211,0.0,-999.0,95,0.00,,,0.00,1.04,,2013-03-09 11:35:00,
2013-03-09 03:40:00,44.3,42.9,29.97,SSW,211,0.0,-999.0,95,0.00,,,0.00,0.61,,2013-03-09 11:40:00,
2013-03-09 03:45:00,44.5,43.7,29.98,SSW,211,0.0,-999.0,97,0.00,,,0.00,0.24,,2013-03-09 11:45:00,
2013-03-09 03:50:00,44.1,42.9,29.98,SSW,211,0.0,-999.0,96,0.00,,,0.00,0.73,,2013-03-09 11:50:00,
2013-03-09 03:55:00,44.3,43.7,29.98,SSW,211,0.0,-999.0,98,0.00,,,0.00,0.31,,2013-03-09 11:55:00,
2013-03-09 04:00:00,44.2,43.5,29.99,SW,229,0.0,-999.0,98,0.00,,,0.00,0.98,,2013-03-09 12:00:00,
2013-03-09 04:05:00,44.9,44.3,29.99,SW,232,0.0,-999.0,98,0.00,,,0.00,0.00,,2013-03-09 12:05:00,
2013-03-09 04:10:00,45.2,44.4,29.99,SSW,207,0.0,-999.0,97,0.00,,,0.00,0.98,,2013-03-09 12:10:00,
2013-03-09 04:15:00,45.2,43.9,29.99,SW,226,1.8,-999.0,95,0.00,,,0.00,0.00,,2013-03-09 12:15:00,
2013-03-09 04:20:00,45.0,43.3,30.01,South,183,0.0,-999.0,94,0.00,,,0.00,0.43,,2013-03-09 12:20:00,
2013-03-09 04:25:00,45.2,43.3,30.00,SSW,197,0.0,-999.0,93,0.00,,,0.00,0.00,,2013-03-09 12:25:00,
2013-03-09 04:30:00,45.5,43.7,30.00,SSW,208,0.0,-999.0,93,0.00,,,0.00,0.00,,2013-03-09 12:30:00,
2013-03-09 04:35:00,45.3,43.2,29.99,SSW,206,0.0,-999.0,92,0.00,,,0.00,0.37,,2013-03-09 12:35:00,
2013-03-09 04:40:00,44.8,42.8,30.01,SSW,206,0.0,-999.0,93,0.00,,,0.00,0.37,,2013-03-09 12:40:00,
2013-03-09 04:45:00,45.3,44.1,30.01,SW,220,3.0,-999.0,95,0.00,,,0.00,0.49,,2013-03-09 12:45:00,
2013-03-09 04:50:00,44.7,43.0,30.01,SSW,194,0.0,-999.0,94,0.00,,,0.00,0.67,,2013-03-09 12:50:00,
2013-03-09 04:55:00,44.8,43.2,30.03,South,175,0.0,-999.0,94,0.00,,,0.00,0.00,,2013-03-09 12:55:00,
2013-03-09 05:00:00,44.7,43.0,30.03,SW,230,1.3,-999.0,93,0.00,,,0.00,0.06,,2013-03-09 13:00:00,
2013-03-09 05:05:00,44.8,42.9,30.02,SW,230,2.0,-999.0,93,0.00,,,0.00,0.98,,2013-03-09 13:05:00,
2013-03-09 05:10:00,44.7,42.8,30.02,SW,234,0.0,-999.0,93,0.00,,,0.00,0.06,,2013-03-09 13:10:00,
2013-03-09 05:15:00,44.6,42.8,30.03,SW,222,0.0,-999.0,93,0.00,,,0.00,0.00,,2013-03-09 13:15:00,
2013-03-09 05:20:00,44.4,42.7,30.04,South,191,0.0,-999.0,93,0.00,,,0.00,1.47,,2013-03-09 13:20:00,
2013-03-09 05:25:00,44.9,43.2,30.04,South,191,0.0,-999.0,94,0.00,,,0.00,0.00,,2013-03-09 13:25:00,
2013-03-09 05:30:00,44.4,42.7,30.04,WSW,245,0.0,-999.0,94,0.00,,,0.00,0.18,,2013-03-09 13:30:00,
2013-03-09 05:35:00,44.6,43.1,30.05,NNE,31,0.0,-999.0,94,0.00,,,0.00,0.00,,2013-03-09 13:35:00,
2013-03-09 05:40:00,44.5,43.1,30.04,North,349,0.0,-999.0,95,0.00,,,0.00,0.24,,2013-03-09 13:40:00,
2013-03-09 05:45:00,44.0,42.5,30.05,SW,222,0.0,-999.0,95,0.00,,,0.00,0.73,,2013-03-09 13:45:00,
2013-03-09 05:50:00,43.6,42.4,30.05,SW,222,0.0,-999.0,96,0.00,,,0.00,0.00,,2013-03-09 13:50:00,
2013-03-09 05:55:00,43.6,42.6,30.06,SW,222,0.0,-999.0,96,0.00,,,0.00,0.06,,2013-03-09 13:55:00,
2013-03-09 06:00:00,44.3,43.6,30.06,SW,222,0.0,-999.0,97,0.00,,,0.00,0.00,,2013-03-09 14:00:00,
2013-03-09 06:05:00,44.0,43.5,30.06,SW,222,0.0,-999.0,98,0.00,,,0.00,0.00,,2013-03-09 14:05:00,
2013-03-09 06:10:00,44.1,43.8,30.07,SW,222,0.0,-999.0,99,0.00,,,0.00,0.98,,2013-03-09 14:10:00,
2013-03-09 06:15:00,44.0,43.8,30.07,SW,222,0.0,-999.0,99,0.00,,,0.00,0.00,,2013-03-09 14:15:00,
2013-03-09 06:20:00,44.6,44.6,30.06,West,270,0.0,-999.0,100,0.00,,,0.00,1.22,,2013-03-09 14:20:00,
2013-03-09 06:25:00,44.3,44.3,30.06,West,270,0.0,-999.0,100,0.00,,,0.00,2.75,,2013-03-09 14:25:00,
2013-03-09 06:30:00,44.6,44.5,30.07,NNW,327,2.5,-999.0,99,0.00,,,0.00,4.46,,2013-03-09 14:30:00,
2013-03-09 06:35:00,44.8,44.7,30.08,NW,314,0.0,-999.0,99,0.00,,,0.00,7.26,,2013-03-09 14:35:00,
2013-03-09 06:40:00,45.3,45.1,30.07,NE,34,0.0,-999.0,99,0.00,,,0.00,13.19,,2013-03-09 14:40:00,
2013-03-09 06:45:00,45.2,44.7,30.08,NW,325,0.0,-999.0,98,0.00,,,0.00,22.47,,2013-03-09 14:45:00,
2013-03-09 06:50:00,45.4,44.8,30.09,North,0,1.6,-999.0,98,0.00,,,0.00,32.91,,2013-03-09 14:50:00,
2013-03-09 06:55:00,45.8,44.9,30.07,North,349,0.0,-999.0,96,0.00,,,0.00,44.99,,2013-03-09 14:55:00,
2013-03-09 07:00:00,46.2,44.9,30.07,NNW,339,0.0,-999.0,95,0.00,,,0.00,57.94,,2013-03-09 15:00:00,
2013-03-09 07:05:00,46.7,45.0,30.08,North,7,0.0,-999.0,94,0.00,,,0.00,70.09,,2013-03-09 15:05:00,
2013-03-09 07:10:00,46.9,44.7,30.08,NNE,30,0.0,-999.0,92,0.00,,,0.00,81.14,,2013-03-09 15:10:00,
2013-03-09 07:15:00,47.3,44.6,30.08,NNE,32,0.0,-999.0,90,0.00,,,0.00,91.15,,2013-03-09 15:15:00,
2013-03-09 07:20:00,49.2,46.1,30.07,NNE,25,0.0,-999.0,89,0.00,,,0.00,102.56,,2013-03-09 15:20:00,
2013-03-09 07:25:00,49.2,45.2,30.09,NNE,33,0.0,-999.0,86,0.00,,,0.00,114.47,,2013-03-09 15:25:00,
2013-03-09 07:30:00,49.2,44.0,30.09,North,11,2.7,-999.0,82,0.00,,,0.00,129.18,,2013-03-09 15:30:00,
2013-03-09 07:35:00,50.8,44.6,30.08,NW,322,0.0,-999.0,79,0.00,,,0.00,145.06,,2013-03-09 15:35:00,
2013-03-09 07:40:00,50.7,42.5,30.09,WNW,301,0.0,-999.0,73,0.00,,,0.00,158.30,,2013-03-09 15:40:00,
2013-03-09 07:45:00,49.8,39.0,30.09,NW,323,3.4,-999.0,66,0.00,,,0.00,172.89,,2013-03-09 15:45:00,
2013-03-09 07:50:00,49.8,38.1,30.09,NNE,16,3.4,-999.0,64,0.00,,,0.00,189.99,,2013-03-09 15:50:00,
2013-03-09 07:55:00,49.3,38.3,30.10,NNE,15,3.7,-999.0,66,0.00,,,0.00,202.93,,2013-03-09 15:55:00,
2013-03-09 08:00:00,49.7,38.9,30.10,NW,306,1.0,-999.0,66,0.00,,,0.00,216.36,,2013-03-09 16:00:00,
2013-03-09 08:05:00,48.5,37.4,30.10,NW,315,3.0,-999.0,65,0.00,,,0.00,230.22,,2013-03-09 16:05:00,
2013-03-09 08:10:00,48.5,37.2,30.10,NNW,331,3.5,-999.0,65,0.00,,,0.00,245.30,,2013-03-09 16:10:00,
2013-03-09 08:15:00,50.5,39.4,30.10,North,351,3.4,-999.0,66,0.00,,,0.00,260.62,,2013-03-09 16:15:00,
2013-03-09 08:20:00,50.1,39.3,30.11,North,0,3.0,-999.0,66,0.00,,,0.00,275.89,,2013-03-09 16:20:00,
2013-03-09 08:25:00,50.8,38.7,30.10,NNW,332,3.2,-999.0,63,0.00,,,0.00,288.95,,2013-03-09 16:25:00,
2013-03-09 08:30:00,50.0,38.8,30.10,NNE,31,2.5,-999.0,65,0.00,,,0.00,304.27,,2013-03-09 16:30:00,
2013-03-09 08:35:00,51.2,39.5,30.11,NE,38,3.2,-999.0,64,0.00,,,0.00,319.48,,2013-03-09 16:35:00,
2013-03-09 08:40:00,51.0,38.1,30.11,WNW,283,4.9,-999.0,61,0.00,,,0.00,331.93,,2013-03-09 16:40:00,
2013-03-09 08:45:00,51.3,38.3,30.11,NW,309,4.0,-999.0,61,0.00,,,0.00,346.34,,2013-03-09 16:45:00,
2013-03-09 08:50:00,51.0,38.8,30.12,NW,318,3.9,-999.0,63,0.00,,,0.00,360.44,,2013-03-09 16:50:00,
2013-03-09 08:55:00,52.4,40.3,30.11,NNW,329,0.0,-999.0,63,0.00,,,0.00,373.57,,2013-03-09 16:55:00,
2013-03-09 09:00:00,50.7,37.9,30.12,NW,319,4.7,-999.0,61,0.00,,,0.00,388.52,,2013-03-09 17:00:00,
2013-03-09 09:05:00,49.6,37.1,30.12,North,351,5.4,-999.0,62,0.00,,,0.00,398.84,,2013-03-09 17:05:00,
2013-03-09 09:10:00,50.0,37.3,30.12,NW,325,1.5,-999.0,61,0.00,,,0.00,413.74,,2013-03-09 17:10:00,
2013-03-09 09:15:00,53.2,38.8,30.12,North,349,0.0,-999.0,58,0.00,,,0.00,428.45,,2013-03-09 17:15:00,
2013-03-09 09:20:00,51.2,36.8,30.12,NNW,337,2.0,-999.0,58,0.00,,,0.00,438.40,,2013-03-09 17:20:00,
2013-03-09 09:25:00,52.6,37.1,30.12,NNW,343,0.0,-999.0,55,0.00,,,0.00,452.32,,2013-03-09 17:25:00,
2013-03-09 09:30:00,51.5,35.2,30.12,NNE,33,3.4,-999.0,54,0.00,,,0.00,461.78,,2013-03-09 17:30:00,
2013-03-09 09:35:00,53.1,35.2,30.12,NNW,332,3.4,-999.0,50,0.00,,,0.00,477.66,,2013-03-09 17:35:00,
2013-03-09 09:40:00,51.7,34.5,30.13,NNW,334,3.4,-999.0,52,0.00,,,0.00,487.97,,2013-03-09 17:40:00,
2013-03-09 09:45:00,54.1,37.4,30.13,NNE,29,1.5,-999.0,53,0.00,,,0.00,501.34,,2013-03-09 17:45:00,
2013-03-09 09:50:00,52.8,34.6,30.12,NW,314,1.5,-999.0,50,0.00,,,0.00,512.94,,2013-03-09 17:50:00,
2013-03-09 09:55:00,56.0,37.2,30.12,West,263,0.0,-999.0,49,0.00,,,0.00,522.83,,2013-03-09 17:55:00,
2013-03-09 10:00:00,52.2,32.6,30.12,WNW,292,4.5,-999.0,47,0.00,,,0.00,532.11,,2013-03-09 18:00:00,
2013-03-09 10:06:00,58.0,35.5,30.13,NNW,347,1.1,-999.0,43,0.00,,,0.00,542.61,,2013-03-09 18:06:00,
2013-03-09 10:15:00,54.3,31.3,30.12,NW,312,3.4,-999.0,41,0.00,,,0.00,560.75,,2013-03-09 18:15:00,
2013-03-09 10:20:00,57.5,33.6,30.12,SW,229,3.0,-999.0,40,0.00,,,0.00,570.09,,2013-03-09 18:20:00,
2013-03-09 10:25:00,56.2,32.2,30.12,West,275,3.5,-999.0,40,0.00,,,0.00,580.16,,2013-03-09 18:25:00,
2013-03-09 10:30:00,57.8,34.6,30.12,SSW,212,3.9,-999.0,41,0.00,,,0.00,589.74,,2013-03-09 18:30:00,
2013-03-09 10:35:00,58.1,36.3,30.12,WSW,245,1.3,-999.0,44,0.00,,,0.00,596.09,,2013-03-09 18:35:00,
2013-03-09 10:40:00,54.6,31.3,30.12,West,274,6.9,-999.0,41,0.00,,,0.00,604.70,,2013-03-09 18:40:00,
2013-03-09 10:45:00,59.0,36.7,30.13,SW,232,2.0,-999.0,43,0.00,,,0.00,612.70,,2013-03-09 18:45:00,
2013-03-09 10:50:00,56.6,33.8,30.13,WSW,242,6.3,-999.0,42,0.00,,,0.00,621.00,,2013-03-09 18:50:00,
2013-03-09 10:55:00,56.5,33.0,30.14,SW,223,5.9,-999.0,41,0.00,,,0.00,629.55,,2013-03-09 18:55:00,
2013-03-09 11:00:00,55.6,32.4,30.13,SSW,208,7.1,-999.0,41,0.00,,,0.00,635.84,,2013-03-09 19:00:00,
2013-03-09 11:05:00,56.6,34.7,30.14,SW,233,4.2,-999.0,44,0.00,,,0.00,638.40,,2013-03-09 19:05:00,
2013-03-09 11:10:00,56.2,34.0,30.14,WSW,246,6.6,-999.0,43,0.00,,,0.00,643.22,,2013-03-09 19:10:00,
2013-03-09 11:15:00,55.0,32.5,30.14,SW,217,6.4,-999.0,42,0.00,,,0.00,651.04,,2013-03-09 19:15:00,
2013-03-09 11:20:00,55.6,33.6,30.13,South,172,5.2,-999.0,43,0.00,,,0.00,656.11,,2013-03-09 19:20:00,
2013-03-09 11:25:00,58.7,36.3,30.14,SSW,192,3.7,-999.0,43,0.00,,,0.00,661.05,,2013-03-09 19:25:00,
2013-03-09 11:30:00,57.7,34.7,30.13,SSW,193,5.4,-999.0,42,0.00,,,0.00,663.00,,2013-03-09 19:30:00,
2013-03-09 11:35:00,57.2,34.5,30.14,South,191,4.4,-999.0,42,0.00,,,0.00,667.16,,2013-03-09 19:35:00,
2013-03-09 11:40:00,58.8,35.5,30.14,South,191,4.9,-999.0,41,0.00,,,0.00,673.26,,2013-03-09 19:40:00,
2013-03-09 11:45:00,58.2,34.5,30.14,WSW,255,3.4,-999.0,41,0.00,,,0.00,674.73,,2013-03-09 19:45:00,
2013-03-09 11:50:00,59.9,36.1,30.13,SW,232,3.4,-999.0,41,0.00,,,0.00,675.28,,2013-03-09 19:50:00,
2013-03-09 11:55:00,57.3,33.4,30.13,South,191,2.8,-999.0,40,0.00,,,0.00,678.69,,2013-03-09 19:55:00,
2013-03-09 12:00:00,59.1,35.1,30.13,West,270,1.1,-999.0,40,0.00,,,0.00,678.21,,2013-03-09 20:00:00,
2013-03-09 12:05:00,58.9,33.4,30.13,SW,220,6.1,-999.0,38,0.00,,,0.00,680.83,,2013-03-09 20:05:00,
2013-03-09 12:10:00,57.2,31.5,30.13,SW,218,8.8,-999.0,37,0.00,,,0.00,680.16,,2013-03-09 20:10:00,
2013-03-09 12:15:00,56.6,33.2,30.13,West,265,7.8,-999.0,41,0.00,,,0.00,679.61,,2013-03-09 20:15:00,
2013-03-09 12:20:00,57.2,35.3,30.14,SSE,165,7.3,-999.0,44,0.00,,,0.00,680.89,,2013-03-09 20:20:00,
2013-03-09 12:25:00,57.4,36.0,30.14,South,186,1.6,-999.0,45,0.00,,,0.00,680.34,,2013-03-09 20:25:00,
2013-03-09 12:35:00,57.8,37.3,30.14,SW,235,4.0,-999.0,46,0.00,,,0.00,674.54,,2013-03-09 20:35:00,
2013-03-09 12:40:00,57.1,36.2,30.14,SSW,200,7.4,-999.0,45,0.00,,,0.00,674.66,,2013-03-09 20:40:00,
2013-03-09 12:45:00,55.7,35.2,30.14,SSW,209,7.4,-999.0,46,0.00,,,0.00,672.59,,2013-03-09 20:45:00,
2013-03-09 12:50:00,57.4,37.8,30.14,WSW,238,6.3,-999.0,48,0.00,,,0.00,669.41,,2013-03-09 20:50:00,
2013-03-09 12:55:00,55.2,35.7,30.14,SSW,206,12.9,-999.0,48,0.00,,,0.00,665.02,,2013-03-09 20:55:00,
2013-03-09 13:00:00,56.1,37.0,30.14,South,182,6.8,-999.0,49,0.00,,,0.00,662.33,,2013-03-09 21:00:00,
2013-03-09 13:05:00,57.1,37.7,30.13,SW,226,9.3,-999.0,48,0.00,,,0.00,660.99,,2013-03-09 21:05:00,
2013-03-09 13:10:00,57.6,38.3,30.13,South,173,5.9,-999.0,48,0.00,,,0.00,656.72,,2013-03-09 21:10:00,
2013-03-09 13:15:00,57.3,37.3,30.13,SSW,204,5.9,-999.0,47,0.00,,,0.00,651.34,,2013-03-09 21:15:00,
2013-03-09 13:20:00,56.4,36.3,30.14,South,185,8.0,-999.0,47,0.00,,,0.00,644.81,,2013-03-09 21:20:00,
2013-03-09 13:25:00,57.9,38.3,30.13,SSE,167,5.9,-999.0,48,0.00,,,0.00,641.58,,2013-03-09 21:25:00,
2013-03-09 13:30:00,57.1,38.5,30.12,SSW,200,5.4,-999.0,50,0.00,,,0.00,637.24,,2013-03-09 21:30:00,
2013-03-09 13:35:00,57.6,39.7,30.12,South,189,4.0,-999.0,51,0.00,,,0.00,627.90,,2013-03-09 21:35:00,
2013-03-09 13:40:00,55.6,38.4,30.11,SW,234,10.5,-999.0,52,0.00,,,0.00,622.77,,2013-03-09 21:40:00,
2013-03-09 13:45:00,56.3,39.0,30.12,SW,231,9.5,-999.0,52,0.00,,,0.00,618.38,,2013-03-09 21:45:00,
2013-03-09 13:50:00,54.0,39.1,30.11,SW,221,11.1,-999.0,57,0.00,,,0.00,609.40,,2013-03-09 21:50:00,
2013-03-09 13:55:00,54.8,41.5,30.11,SW,215,12.3,-999.0,61,0.00,,,0.00,602.26,,2013-03-09 21:55:00,
2013-03-09 14:00:00,55.4,42.5,30.11,SSE,154,7.3,-999.0,62,0.00,,,0.00,593.90,,2013-03-09 22:00:00,
2013-03-09 14:05:00,54.8,40.8,30.11,South,183,10.7,-999.0,59,0.00,,,0.00,585.35,,2013-03-09 22:05:00,
2013-03-09 14:10:00,59.0,45.1,30.11,East,100,3.7,-999.0,60,0.00,,,0.00,577.11,,2013-03-09 22:10:00,
2013-03-09 14:15:00,55.8,41.4,30.11,WSW,241,9.7,-999.0,58,0.00,,,0.00,567.16,,2013-03-09 22:15:00,
2013-03-09 14:20:00,56.1,41.3,30.11,SW,219,8.8,-999.0,57,0.00,,,0.00,554.15,,2013-03-09 22:20:00,
2013-03-09 14:25:00,57.2,42.7,30.11,SSW,211,5.9,-999.0,58,0.00,,,0.00,550.49,,2013-03-09 22:25:00,
2013-03-09 14:30:00,56.1,41.9,30.12,SSW,199,8.7,-999.0,59,0.00,,,0.00,539.19,,2013-03-09 22:30:00,
2013-03-09 14:35:00,56.3,40.7,30.11,South,184,11.1,-999.0,56,0.00,,,0.00,529.24,,2013-03-09 22:35:00,
2013-03-09 14:40:00,58.3,42.2,30.11,SSW,192,7.8,-999.0,55,0.00,,,0.00,520.33,,2013-03-09 22:40:00,
2013-03-09 14:45:00,57.1,40.0,30.12,SW,221,11.2,-999.0,53,0.00,,,0.00,506.29,,2013-03-09 22:45:00,
2013-03-09 14:50:00,57.5,39.0,30.12,West,260,3.4,-999.0,50,0.00,,,0.00,496.76,,2013-03-09 22:50:00,
2013-03-09 14:55:00,57.2,38.4,30.11,SW,217,5.8,-999.0,49,0.00,,,0.00,488.22,,2013-03-09 22:55:00,
2013-03-09 15:00:00,57.0,38.9,30.11,South,171,8.7,-999.0,51,0.00,,,0.00,474.73,,2013-03-09 23:00:00,
2013-03-09 15:05:00,55.9,38.6,30.12,WSW,244,8.0,-999.0,52,0.00,,,0.00,466.18,,2013-03-09 23:05:00,
2013-03-09 15:10:00,57.3,41.3,30.11,SSW,194,5.1,-999.0,55,0.00,,,0.00,451.53,,2013-03-09 23:10:00,
2013-03-09 15:15:00,55.2,40.4,30.12,South,173,10.5,-999.0,57,0.00,,,0.00,439.07,,2013-03-09 23:15:00,
2013-03-09 15:20:00,54.4,40.3,30.11,SSW,212,9.7,-999.0,59,0.00,,,0.00,427.11,,2013-03-09 23:20:00,
2013-03-09 15:25:00,54.7,40.1,30.12,SW,217,9.0,-999.0,58,0.00,,,0.00,413.74,,2013-03-09 23:25:00,
2013-03-09 15:30:00,55.8,41.5,30.11,SW,229,9.0,-999.0,58,0.00,,,0.00,402.20,,2013-03-09 23:30:00,
2013-03-09 15:35:00,56.2,41.1,30.11,SSE,158,6.1,-999.0,57,0.00,,,0.00,389.01,,2013-03-09 23:35:00,
2013-03-09 15:40:00,56.5,41.6,30.10,West,259,6.1,-999.0,57,0.00,,,0.00,373.44,,2013-03-09 23:40:00,
2013-03-09 15:45:00,55.0,41.1,30.11,SSW,210,10.0,-999.0,59,0.00,,,0.00,363.61,,2013-03-09 23:45:00,
2013-03-09 15:50:00,54.8,41.8,30.11,SW,233,9.3,-999.0,62,0.00,,,0.00,346.76,,2013-03-09 23:50:00,
2013-03-09 15:55:00,54.5,42.4,30.11,West,274,6.9,-999.0,63,0.00,,,0.00,337.00,,2013-03-09 23:55:00,
2013-03-09 16:00:00,54.7,42.6,30.11,SSW,194,8.3,-999.0,64,0.00,,,0.00,329.37,,2013-03-10 00:00:00,
2013-03-09 16:05:00,55.5,42.6,30.11,SSW,208,9.0,-999.0,62,0.00,,,0.00,309.16,,2013-03-10 00:05:00,
2013-03-09 16:10:00,55.9,42.1,30.11,SW,227,5.8,-999.0,60,0.00,,,0.00,295.97,,2013-03-10 00:10:00,
2013-03-09 16:15:00,56.1,41.3,30.10,South,178,7.8,-999.0,58,0.00,,,0.00,281.56,,2013-03-10 00:15:00,
2013-03-09 16:20:00,57.1,40.8,30.10,SW,216,6.3,-999.0,54,0.00,,,0.00,273.87,,2013-03-10 00:20:00,
2013-03-09 16:25:00,57.3,40.7,30.10,SSW,208,5.6,-999.0,54,0.00,,,0.00,253.54,,2013-03-10 00:25:00,
2013-03-09 16:30:00,57.0,39.3,30.11,SSE,157,7.3,-999.0,52,0.00,,,0.00,238.03,,2013-03-10 00:30:00,
2013-03-09 16:35:00,56.9,39.0,30.10,SE,140,10.5,-999.0,51,0.00,,,0.00,223.99,,2013-03-10 00:35:00,
2013-03-09 16:40:00,56.4,39.8,30.11,South,175,7.8,-999.0,54,0.00,,,0.00,210.26,,2013-03-10 00:40:00,
2013-03-09 16:45:00,56.0,41.0,30.11,SW,232,6.3,-999.0,57,0.00,,,0.00,192.98,,2013-03-10 00:45:00,
2013-03-09 16:50:00,56.3,41.7,30.11,WSW,243,7.6,-999.0,58,0.00,,,0.00,178.45,,2013-03-10 00:50:00,
2013-03-09 16:55:00,56.1,41.6,30.11,WSW,246,9.0,-999.0,58,0.00,,,0.00,167.03,,2013-03-10 00:55:00,
2013-03-09 17:00:00,57.0,42.0,30.10,WSW,250,1.0,-999.0,57,0.00,,,0.00,153.36,,2013-03-10 01:00:00,
2013-03-09 17:05:00,56.3,40.7,30.11,SSW,203,5.8,-999.0,56,0.00,,,0.00,141.21,,2013-03-10 01:05:00,
2013-03-09 17:10:00,56.7,41.0,30.10,South,185,6.4,-999.0,56,0.00,,,0.00,126.74,,2013-03-10 01:10:00,
2013-03-09 17:15:00,55.9,41.3,30.11,South,191,5.4,-999.0,58,0.00,,,0.00,115.57,,2013-03-10 01:15:00,
2013-03-09 17:20:00,55.4,42.4,30.11,WSW,258,3.7,-999.0,61,0.00,,,0.00,102.01,,2013-03-10 01:20:00,
2013-03-09 17:25:00,54.8,43.0,30.11,South,171,6.1,-999.0,64,0.00,,,0.00,87.48,,2013-03-10 01:25:00,
2013-03-09 17:30:00,54.6,43.7,30.11,SW,219,7.3,-999.0,66,0.00,,,0.00,78.51,,2013-03-10 01:30:00,
2013-03-09 17:35:00,54.5,43.7,30.11,SSW,210,7.1,-999.0,67,0.00,,,0.00,65.93,,2013-03-10 01:35:00,
2013-03-09 17:40:00,54.2,43.7,30.11,SW,216,7.1,-999.0,68,0.00,,,0.00,53.97,,2013-03-10 01:40:00,
2013-03-09 17:45:00,53.5,43.6,30.11,South,170,6.3,-999.0,69,0.00,,,0.00,31.81,,2013-03-10 01:45:00,
2013-03-09 17:50:00,53.2,43.9,30.11,SW,232,6.6,-999.0,70,0.00,,,0.00,22.47,,2013-03-10 01:50:00,
2013-03-09 17:55:00,53.1,44.0,30.12,WSW,240,5.2,-999.0,71,0.00,,,0.00,11.97,,2013-03-10 01:55:00,
2013-03-09 18:00:00,53.0,44.1,30.12,WSW,237,2.5,-999.0,71,0.00,,,0.00,7.63,,2013-03-10 02:00:00,
2013-03-09 18:05:00,53.0,43.9,30.12,South,184,8.0,-999.0,71,0.00,,,0.00,0.00,,2013-03-10 02:05:00,
2013-03-09 18:10:00,52.9,43.7,30.12,SSW,210,6.9,-999.0,71,0.00,,,0.00,3.24,,2013-03-10 02:10:00,
2013-03-09 18:15:00,52.7,44.0,30.12,WSW,242,6.6,-999.0,72,0.00,,,0.00,2.44,,2013-03-10 02:15:00,
2013-03-09 18:25:00,52.2,44.2,30.14,WSW,237,8.3,-999.0,74,0.00,,,0.00,0.00,,2013-03-10 02:25:00,
2013-03-09 18:30:00,51.7,44.6,30.13,SSW,206,12.4,-999.0,77,0.00,,,0.00,0.00,,2013-03-10 02:30:00,
2013-03-09 18:35:00,51.5,44.8,30.13,SW,215,8.1,-999.0,78,0.00,,,0.00,0.00,,2013-03-10 02:35:00,
2013-03-09 18:40:00,51.4,44.8,30.13,SW,216,9.5,-999.0,78,0.00,,,0.00,0.18,,2013-03-10 02:40:00,
2013-03-09 18:45:00,51.0,44.9,30.14,SW,224,9.5,-999.0,79,0.00,,,0.00,0.00,,2013-03-10 02:45:00,
2013-03-09 18:50:00,50.8,45.1,30.14,SW,214,9.3,-999.0,81,0.00,,,0.00,0.18,,2013-03-10 02:50:00,
2013-03-09 18:55:00,50.5,45.1,30.13,SW,214,6.9,-999.0,82,0.00,,,0.00,0.00,,2013-03-10 02:55:00,
2013-03-09 19:00:00,50.6,45.2,30.12,SW,221,12.3,-999.0,82,0.00,,,0.00,0.49,,2013-03-10 03:00:00,
2013-03-09 19:05:00,50.6,45.2,30.13,SW,220,9.3,-999.0,82,0.00,,,0.00,0.49,,2013-03-10 03:05:00,
2013-03-09 19:10:00,50.4,45.1,30.13,WSW,242,6.1,-999.0,82,0.00,,,0.00,1.95,,2013-03-10 03:10:00,
2013-03-09 19:15:00,50.3,45.2,30.13,SW,217,6.3,-999.0,82,0.00,,,0.00,1.22,,2013-03-10 03:15:00,
2013-03-09 19:20:00,50.3,45.2,30.14,WSW,244,7.1,-999.0,82,0.00,,,0.00,0.00,,2013-03-10 03:20:00,
2013-03-09 19:25:00,50.6,45.5,30.14,SW,221,4.2,-999.0,82,0.00,,,0.00,0.00,,2013-03-10 03:25:00,
2013-03-09 19:30:00,50.5,45.3,30.14,SW,228,4.4,-999.0,82,0.00,,,0.00,0.24,,2013-03-10 03:30:00,
2013-03-09 19:35:00,50.5,45.0,30.14,SSW,198,6.3,-999.0,81,0.00,,,0.00,0.73,,2013-03-10 03:35:00,
2013-03-09 19:40:00,50.4,44.8,30.14,SW,229,5.4,-999.0,81,0.00,,,0.00,0.98,,2013-03-10 03:40:00,
2013-03-09 19:45:00,50.3,44.9,30.15,SW,228,6.3,-999.0,82,0.00,,,0.00,0.43,,2013-03-10 03:45:00,
2013-03-09 19:50:00,50.2,45.0,30.14,SW,233,5.9,-999.0,82,0.00,,,0.00,0.00,,2013-03-10 03:50:00,
2013-03-09 19:55:00,50.3,45.2,30.14,South,191,7.4,-999.0,83,0.00,,,0.00,0.00,,2013-03-10 03:55:00,
2013-03-09 20:00:00,50.2,45.3,30.14,SSW,207,9.3,-999.0,83,0.00,,,0.00,0.00,,2013-03-10 04:00:00,
2013-03-09 20:05:00,49.9,45.6,30.14,SW,230,4.5,-999.0,85,0.00,,,0.00,0.73,,2013-03-10 04:05:00,
2013-03-09 20:10:00,49.8,45.5,30.14,SW,228,3.9,-999.0,85,0.00,,,0.00,0.00,,2013-03-10 04:10:00,
2013-03-09 20:15:00,50.0,45.6,30.15,WSW,237,7.4,-999.0,85,0.00,,,0.00,0.06,,2013-03-10 04:15:00,
2013-03-09 20:20:00,49.9,45.2,30.14,SW,232,6.4,-999.0,84,0.00,,,0.00,0.92,,2013-03-10 04:20:00,
2013-03-09 20:25:00,50.1,45.0,30.14,SW,214,8.1,-999.0,83,0.00,,,0.00,0.49,,2013-03-10 04:25:00,
2013-03-09 20:30:00,50.1,44.9,30.15,WSW,239,6.4,-999.0,82,0.00,,,0.00,0.00,,2013-03-10 04:30:00,
2013-03-09 20:35:00,50.0,45.1,30.14,WSW,242,5.8,-999.0,83,0.00,,,0.00,0.73,,2013-03-10 04:35:00,
2013-03-09 20:40:00,50.0,45.2,30.15,South,185,2.7,-999.0,84,0.00,,,0.00,0.00,,2013-03-10 04:40:00,
2013-03-09 20:45:00,50.0,45.2,30.14,WSW,245,3.7,-999.0,83,0.00,,,0.00,0.00,,2013-03-10 04:45:00,
2013-03-09 20:50:00,50.0,44.9,30.14,WSW,250,2.8,-999.0,83,0.00,,,0.00,1.22,,2013-03-10 04:50:00,
2013-03-09 20:55:00,49.9,44.9,30.15,SW,224,3.0,-999.0,83,0.00,,,0.00,0.00,,2013-03-10 04:55:00,
2013-03-09 21:00:00,50.2,45.1,30.15,SW,223,3.5,-999.0,83,0.00,,,0.00,0.61,,2013-03-10 05:00:00,
2013-03-09 21:05:00,50.3,44.9,30.15,SW,216,7.1,-999.0,81,0.00,,,0.00,0.00,,2013-03-10 05:05:00,
2013-03-09 21:10:00,50.4,44.7,30.16,WSW,244,3.7,-999.0,81,0.00,,,0.00,0.06,,2013-03-10 05:10:00,
2013-03-09 21:15:00,50.2,44.1,30.16,SW,220,3.0,-999.0,79,0.00,,,0.00,0.06,,2013-03-10 05:15:00,
2013-03-09 21:20:00,50.3,44.1,30.16,WSW,245,7.1,-999.0,79,0.00,,,0.00,0.98,,2013-03-10 05:20:00,
2013-03-09 21:25:00,50.3,44.1,30.16,NNW,340,0.0,-999.0,79,0.00,,,0.00,1.22,,2013-03-10 05:25:00,
2013-03-09 21:30:00,50.1,43.9,30.16,SW,234,1.6,-999.0,79,0.00,,,0.00,0.49,,2013-03-10 05:30:00,
2013-03-09 21:35:00,49.8,44.1,30.16,SW,224,1.3,-999.0,80,0.00,,,0.00,0.06,,2013-03-10 05:35:00,
2013-03-09 21:40:00,49.9,44.3,30.16,SW,231,3.4,-999.0,81,0.00,,,0.00,0.98,,2013-03-10 05:40:00,
2013-03-09 21:45:00,50.0,44.9,30.16,SW,217,6.3,-999.0,82,0.00,,,0.00,0.00,,2013-03-10 05:45:00,
2013-03-09 21:50:00,49.5,44.7,30.17,SW,216,2.8,-999.0,83,0.00,,,0.00,0.00,,2013-03-10 05:50:00,
2013-03-09 21:55:00,49.6,45.2,30.17,WSW,238,3.9,-999.0,85,0.00,,,0.00,0.12,,2013-03-10 05:55:00,
2013-03-09 22:00:00,49.4,45.5,30.16,SW,228,2.2,-999.0,86,0.00,,,0.00,0.00,,2013-03-10 06:00:00,
2013-03-09 22:05:00,49.3,45.9,30.16,SSW,206,4.2,-999.0,88,0.00,,,0.00,0.00,,2013-03-10 06:05:00,
2013-03-09 22:10:00,49.2,46.1,30.18,SSW,197,5.8,-999.0,89,0.00,,,0.00,0.00,,2013-03-10 06:10:00,
2013-03-09 22:15:00,49.3,46.3,30.16,SSW,204,2.7,-999.0,89,0.00,,,0.00,0.31,,2013-03-10 06:15:00,
2013-03-09 22:20:00,49.1,46.2,30.16,SW,234,3.4,-999.0,90,0.00,,,0.00,0.98,,2013-03-10 06:20:00,
2013-03-09 22:25:00,49.5,46.8,30.17,SW,222,0.0,-999.0,90,0.00,,,0.00,0.00,,2013-03-10 06:25:00,
2013-03-09 22:30:00,49.0,46.5,30.17,SW,230,2.7,-999.0,91,0.00,,,0.00,0.43,,2013-03-10 06:30:00,
2013-03-09 22:35:00,49.5,46.8,30.16,SW,233,0.0,-999.0,90,0.00,,,0.00,0.61,,2013-03-10 06:35:00,
2013-03-09 22:40:00,49.4,46.6,30.16,WSW,240,0.0,-999.0,90,0.00,,,0.00,1.22,,2013-03-10 06:40:00,
2013-03-09 22:45:00,49.8,47.2,30.16,WSW,240,0.0,-999.0,91,0.00,,,0.00,0.24,,2013-03-10 06:45:00,
2013-03-09 22:50:00,49.0,46.7,30.16,WSW,240,0.0,-999.0,91,0.00,,,0.00,0.73,,2013-03-10 06:50:00,
2013-03-09 22:55:00,49.6,47.5,30.16,WSW,240,0.0,-999.0,92,0.00,,,0.00,0.73,,2013-03-10 06:55:00,
2013-03-09 23:00:00,49.5,47.3,30.16,WSW,240,0.0,-999.0,92,0.00,,,0.00,0.00,,2013-03-10 07:00:00,
2013-03-09 23:05:00,49.1,46.7,30.17,WSW,240,0.0,-999.0,91,0.00,,,0.00,0.00,,2013-03-10 07:05:00,
2013-03-09 23:10:00,49.1,46.9,30.17,WSW,247,0.0,-999.0,92,0.00,,,0.00,0.31,,2013-03-10 07:10:00,
2013-03-09 23:15:00,48.8,46.2,30.16,West,281,2.2,-999.0,90,0.00,,,0.00,0.73,,2013-03-10 07:15:00,
2013-03-09 23:20:00,48.5,46.3,30.18,WSW,255,4.0,-999.0,92,0.00,,,0.00,0.00,,2013-03-10 07:20:00,
2013-03-09 23:25:00,48.2,46.4,30.17,SW,231,2.7,-999.0,93,0.00,,,0.00,0.00,,2013-03-10 07:25:00,
2013-03-09 23:30:00,48.4,47.0,30.16,WSW,251,4.2,-999.0,95,0.00,,,0.00,0.00,,2013-03-10 07:30:00,
2013-03-09 23:35:00,48.2,47.1,30.16,WSW,242,4.0,-999.0,96,0.00,,,0.00,0.00,,2013-03-10 07:35:00,
2013-03-09 23:40:00,48.5,47.5,30.17,West,262,7.3,-999.0,97,0.00,,,0.00,0.00,,2013-03-10 07:40:00,
2013-03-09 23:45:00,48.4,47.6,30.17,SSW,211,5.8,-999.0,97,0.00,,,0.00,0.06,,2013-03-10 07:45:00,
2013-03-09 23:50:00,48.4,47.7,30.16,West,279,5.1,-999.0,97,0.00,,,0.00,0.00,,2013-03-10 07:50:00,
2013-03-09 23:55:00,48.2,47.5,30.16,SW,228,5.2,-999.0,98,0.00,,,0.00,0.06,,2013-03-10 07:55:00,